Location: *
(49.0044°N, 9.5056°E)
Time: 13:31:29
(UTC+00:00)

Cosmos 2263 Rocket - Pass Details

Date: 22 September 2019
Orbit: 824 x 848 km, 71.0° (Epoch: 19 October)

Event Time Altitude Azimuth Distance (km) Brightness Sun altitude
Exits shadow 22:00:15 26° 4° (N) 1,632 4.1 -38.3°
Drops below altitude 10° 22:02:50 10° 19° (NNE) 2,477 5.1 -38.5°
Sets 22:05:25 0° 26° (NNE) 3,413 5.8 -38.6°
